FW2021 Weather Reports


Display with metric or nautical units.
time (UTC)temp
F
wind
direction
speed
MPH
gust
MPH
rain 1hr
in
rain 24hr
in
rain mn
in
humidity
%
barometer
mb
20260503232718 76 290 2.0 6.0 0.00 0.00 0.00 43 1010.9
20260503232216 76 306 2.0 4.0 0.00 0.00 0.00 44 1011.0
20260503231219 76 235 2.0 6.0 0.00 0.00 0.00 44 1011.1
20260503230213 76 84 2.0 6.0 0.00 0.00 0.00 41 1011.2
20260503224712 76 285 3.0 9.0 0.00 0.00 0.00 43 1011.5
20260503224212 75 345 3.0 9.0 0.00 0.00 0.00 42 1011.5
20260503223711 75 286 3.0 8.0 0.00 0.00 0.00 44 1011.6
20260503222709 75 261 2.0 10.0 0.00 0.00 0.00 45 1011.7
20260503222209 74 249 3.0 10.0 0.00 0.00 0.00 45 1011.7
20260503221709 75 324 2.0 9.0 0.00 0.00 0.00 46 1011.8
20260503221209 75 5 2.0 6.0 0.00 0.00 0.00 46 1011.9
20260503215710 74 314 3.0 8.0 0.00 0.00 0.00 42 1012.0
20260503215210 74 318 3.0 8.0 0.00 0.00 0.00 45 1012.1
20260503214210 74 355 2.0 6.0 0.00 0.00 0.00 43 1012.1
20260503213708 74 314 3.0 8.0 0.00 0.00 0.00 43 1012.2
20260503213207 74 355 3.0 8.0 0.00 0.00 0.00 45 1012.2
20260503212708 74 304 3.0 8.0 0.00 0.00 0.00 45 1012.3
20260503212207 73 290 2.0 6.0 0.00 0.00 0.00 45 1012.3
20260503211206 74 290 3.0 9.0 0.00 0.00 0.00 46 1012.3
20260503210201 73 317 3.0 8.0 0.00 0.00 0.00 47 1012.5
20260503205201 72 310 3.0 8.0 0.00 0.00 0.00 47 1012.6
20260503204659 72 317 2.0 7.0 0.00 0.00 0.00 47 1012.6
20260503204200 72 336 3.0 7.0 0.00 0.00 0.00 47 1012.7
20260503203700 72 273 3.0 7.0 0.00 0.00 0.00 47 1012.7
20260503203158 72 324 3.0 7.0 0.00 0.00 0.00 48 1012.8
20260503202658 72 329 2.0 5.0 0.00 0.00 0.00 49 1012.9
20260503201655 72 327 3.0 6.0 0.00 0.00 0.00 46 1013.0
20260503201155 72 339 2.0 6.0 0.00 0.00 0.00 47 1013.0
20260503200655 72 338 3.0 7.0 0.00 0.00 0.00 48 1013.1
20260503200155 71 57 3.0 10.0 0.00 0.00 0.00 48 1013.2
20260503195653 71 319 3.0 10.0 0.00 0.00 0.00 50 1013.2
20260503194653 71 309 3.0 8.0 0.00 0.00 0.00 51 1013.3
20260503194153 70 295 3.0 8.0 0.00 0.00 0.00 51 1013.3
20260503193653 70 347 2.0 8.0 0.00 0.00 0.00 52 1013.4
20260503193151 69 319 2.0 5.0 0.00 0.00 0.00 54 1013.5
20260503192649 69 286 2.0 4.0 0.00 0.00 0.00 53 1013.6
20260503191644 69 300 2.0 6.0 0.00 0.00 0.00 55 1013.7
20260503191144 70 344 3.0 8.0 0.00 0.00 0.00 55 1013.8
20260503190644 70 329 3.0 8.0 0.00 0.00 0.00 51 1013.8
20260503190141 70 277 3.0 8.0 0.00 0.00 0.00 51 1013.9
20260503185639 70 5 2.0 6.0 0.00 0.00 0.00 51 1013.9
20260503185138 70 25 2.0 7.0 0.00 0.00 0.00 52 1013.9
20260503184639 70 27 2.0 7.0 0.00 0.00 0.00 52 1014.0
20260503184137 70 340 2.0 7.0 0.00 0.00 0.00 51 1014.1
20260503183637 70 309 2.0 6.0 0.00 0.00 0.00 51 1014.1
20260503181640 69 254 2.0 6.0 0.00 0.00 0.00 53 1014.2
20260503180640 69 292 2.0 7.0 0.00 0.00 0.00 56 1014.2
20260503180141 68 325 2.0 7.0 0.00 0.00 0.00 55 1014.2
20260503175634 68 294 2.0 6.0 0.00 0.00 0.00 57 1014.3
20260503175125 67 5 1.0 6.0 0.00 0.00 0.00 59 1014.3
20260503174122 66 284 2.0 4.0 0.00 0.00 0.00 60 1014.4
20260503172619 65 294 2.0 4.0 0.00 0.00 0.00 60 1014.5
20260503172120 65 272 2.0 5.0 0.00 0.00 0.00 61 1014.5
20260503171618 65 318 2.0 4.0 0.00 0.00 0.00 61 1014.4
20260503171120 65 289 2.0 5.0 0.00 0.00 0.00 60 1014.4
20260503170620 65 277 2.0 5.0 0.00 0.00 0.00 60 1014.4
20260503170117 65 300 2.0 5.0 0.00 0.00 0.00 58 1014.5
20260503150605 62 310 2.0 4.0 0.00 0.00 0.00 61 1014.6
20260503150105 61 308 2.0 4.0 0.00 0.00 0.00 62 1014.6
20260503131044 58 73 1.0 4.0 0.00 0.00 0.00 66 1014.4
20260503130544 58 92 1.0 4.0 0.00 0.00 0.00 66 1014.4
20260503110507 58 211 0.0 2.0 0.00 0.00 0.00 62 1014.7
20260503081454 64 39 2.0 7.0 0.00 0.00 0.00 49 1014.7
20260503072444 65 74 3.0 8.0 0.00 0.00 0.00 48 1014.7
20260503071944 65 69 3.0 7.0 0.00 0.00 0.00 48 1014.7
20260503071443 65 62 2.0 7.0 0.00 0.01 0.00 48 1014.7
20260503070940 65 88 2.0 7.0 0.00 0.01 0.00 49 1014.7
20260503070440 65 90 3.0 7.0 0.00 0.01 0.00 48 1014.7
20260503054430 66 118 3.0 7.0 0.00 0.01 0.01 47 1014.5
20260503053926 66 58 3.0 6.0 0.00 0.01 0.01 48 1014.5
20260503053426 66 55 3.0 8.0 0.00 0.01 0.01 48 1014.5
20260503052926 66 152 3.0 8.0 0.00 0.01 0.01 48 1014.6
20260503052427 66 57 3.0 8.0 0.00 0.01 0.01 48 1014.5
20260503051426 66 61 2.0 6.0 0.00 0.01 0.01 48 1014.4
20260503050925 66 61 3.0 7.0 0.00 0.01 0.01 48 1014.4
20260503045420 66 79 2.0 8.0 0.00 0.01 0.01 48 1014.4
20260503044917 66 70 2.0 5.0 0.00 0.01 0.01 48 1014.5
20260503044415 67 100 2.0 5.0 0.00 0.01 0.01 48 1014.4
20260503043413 67 84 2.0 9.0 0.00 0.01 0.01 48 1014.3
20260503042911 67 58 2.0 9.0 0.00 0.01 0.01 48 1014.3
20260503042407 67 321 2.0 7.0 0.00 0.01 0.01 47 1014.2
20260503041402 67 49 2.0 7.0 0.00 0.01 0.01 48 1014.2
20260503040902 67 64 2.0 6.0 0.00 0.01 0.01 47 1014.1
20260503040402 67 270 2.0 6.0 0.00 0.01 0.01 48 1014.1
20260503035902 67 327 2.0 4.0 0.00 0.01 0.01 48 1014.0
20260503035402 67 69 2.0 4.0 0.00 0.01 0.01 49 1013.9
20260503034902 67 42 2.0 4.0 0.00 0.01 0.01 49 1013.8
20260503034402 67 327 2.0 7.0 0.00 0.01 0.01 49 1013.8
20260503033903 67 267 2.0 9.0 0.00 0.01 0.01 49 1013.7
20260503032905 67 94 1.0 4.0 0.00 0.01 0.01 51 1013.6
20260503032405 67 69 1.0 4.0 0.00 0.01 0.01 51 1013.5
20260503031905 68 317 2.0 7.0 0.00 0.01 0.01 51 1013.6
20260503031405 68 211 2.0 7.0 0.00 0.01 0.01 51 1013.4
20260503030905 68 340 2.0 7.0 0.00 0.01 0.01 50 1013.4
20260503030404 68 355 2.0 7.0 0.00 0.01 0.01 50 1013.4
20260503025903 68 294 2.0 5.0 0.00 0.01 0.01 50 1013.3
20260503025400 68 254 2.0 10.0 0.00 0.01 0.01 50 1013.3
20260503024900 68 333 3.0 10.0 0.00 0.01 0.01 50 1013.2
20260503024401 69 123 3.0 6.0 0.00 0.01 0.01 50 1013.2
20260503022858 69 296 4.0 10.0 0.00 0.01 0.01 50 1013.1
20260503021858 69 320 3.0 10.0 0.00 0.01 0.01 49 1013.1
20260503021358 69 141 3.0 10.0 0.00 0.01 0.01 49 1013.2
20260503020858 69 322 3.0 7.0 0.00 0.01 0.01 49 1013.1
20260503020354 70 44 3.0 7.0 0.00 0.01 0.01 49 1013.2
20260503015854 70 36 3.0 10.0 0.00 0.01 0.01 49 1013.2
20260503014852 70 304 4.0 10.0 0.00 0.01 0.01 49 1013.3
20260503014351 70 340 4.0 12.0 0.00 0.01 0.01 48 1013.3
20260503013351 70 329 4.0 11.0 0.00 0.01 0.01 49 1013.3
20260503012851 70 38 5.0 11.0 0.00 0.01 0.01 48 1013.3
20260503010847 70 348 5.0 14.0 0.00 0.01 0.01 48 1013.4
20260503010347 71 277 5.0 14.0 0.00 0.01 0.01 48 1013.4
20260503005848 71 11 4.0 14.0 0.00 0.01 0.01 49 1013.5
20260503004848 71 296 4.0 10.0 0.00 0.01 0.01 50 1013.5
20260503004348 71 341 4.0 13.0 0.00 0.01 0.01 49 1013.6
20260503003348 71 332 4.0 12.0 0.00 0.01 0.01 48 1013.7
20260503002848 71 293 4.0 11.0 0.00 0.01 0.01 49 1013.6
20260503002347 71 329 5.0 13.0 0.00 0.01 0.01 49 1013.6
20260503001847 71 296 5.0 13.0 0.00 0.01 0.01 48 1013.6
20260503001346 71 87 5.0 12.0 0.00 0.01 0.01 47 1013.6
20260503000846 71 274 4.0 12.0 0.00 0.01 0.01 47 1013.8
20260502235344 71 315 4.0 10.0 0.00 0.01 0.01 48 1013.9
20260502234843 71 318 4.0 9.0 0.00 0.01 0.01 48 1014.0
20260502234346 71 18 4.0 9.0 0.00 0.01 0.01 48 1014.0
20260502233846 71 325 4.0 9.0 0.00 0.01 0.01 47 1014.1